Time,TemperatureF,DewpointF,PressureIn,WindDirection,WindDirectionDegrees,WindSpeedMPH,WindSpeedGustMPH,Humidity,HourlyPrecipIn,Conditions,Clouds,dailyrainin,SoftwareType,DateUTC
2013-01-05 00:04:00,25.0,0.0,30.27,South,191,5.0,5.0,34,-99.99,,,-99.99,,2013-01-05 08:04:00,
2013-01-05 00:12:00,24.0,0.0,30.27,South,186,3.0,5.0,34,-99.99,,,-99.99,,2013-01-05 08:12:00,
2013-01-05 00:20:00,23.0,0.0,30.27,WSW,241,0.0,2.0,33,-99.99,,,-99.99,,2013-01-05 08:20:00,
2013-01-05 00:28:00,20.0,0.0,30.28,West,266,3.0,3.0,35,-99.99,,,-99.99,,2013-01-05 08:28:00,
2013-01-05 00:36:00,19.0,0.0,30.28,West,269,2.0,3.0,33,-99.99,,,-99.99,,2013-01-05 08:36:00,
2013-01-05 00:44:00,19.0,0.0,30.28,West,260,2.0,2.0,32,-99.99,,,-99.99,,2013-01-05 08:44:00,
2013-01-05 00:52:00,19.0,0.0,30.27,WNW,291,2.0,2.0,36,-99.99,,,-99.99,,2013-01-05 08:52:00,
2013-01-05 01:00:00,20.0,0.0,30.28,WNW,282,0.0,1.0,35,-99.99,,,-99.99,,2013-01-05 09:00:00,
2013-01-05 01:08:00,20.0,0.0,30.28,West,261,0.0,1.0,30,-99.99,,,-99.99,,2013-01-05 09:08:00,
2013-01-05 01:16:00,19.0,0.0,30.28,West,261,0.0,0.0,31,-99.99,,,-99.99,,2013-01-05 09:16:00,
2013-01-05 01:24:00,19.0,0.0,30.28,West,261,0.0,0.0,32,-99.99,,,-99.99,,2013-01-05 09:24:00,
2013-01-05 01:32:00,19.0,0.0,30.28,East,90,1.0,1.0,33,-99.99,,,-99.99,,2013-01-05 09:32:00,
2013-01-05 01:40:00,21.0,0.0,30.28,NE,46,0.0,1.0,35,-99.99,,,-99.99,,2013-01-05 09:40:00,
2013-01-05 01:48:00,21.0,0.0,30.28,NE,36,0.0,0.0,33,-99.99,,,-99.99,,2013-01-05 09:48:00,
2013-01-05 01:56:00,20.0,0.0,30.28,NW,317,0.0,1.0,32,-99.99,,,-99.99,,2013-01-05 09:56:00,
2013-01-05 02:04:00,19.0,0.0,30.28,North,350,1.0,2.0,31,-99.99,,,-99.99,,2013-01-05 10:04:00,
2013-01-05 02:12:00,20.0,0.0,30.29,NNW,335,0.0,1.0,35,-99.99,,,-99.99,,2013-01-05 10:12:00,
2013-01-05 02:20:00,17.0,0.0,30.29,West,278,1.0,2.0,34,-99.99,,,-99.99,,2013-01-05 10:20:00,
2013-01-05 02:28:00,18.0,0.0,30.29,WNW,283,2.0,3.0,32,-99.99,,,-99.99,,2013-01-05 10:28:00,
2013-01-05 02:36:00,19.0,0.0,30.29,WNW,294,0.0,1.0,36,-99.99,,,-99.99,,2013-01-05 10:36:00,
2013-01-05 02:44:00,19.0,0.0,30.29,WSW,242,0.0,0.0,33,-99.99,,,-99.99,,2013-01-05 10:44:00,
2013-01-05 02:52:00,20.0,0.0,30.29,NE,40,1.0,1.0,33,-99.99,,,-99.99,,2013-01-05 10:52:00,
2013-01-05 03:00:00,20.0,0.0,30.29,NNE,15,1.0,2.0,35,-99.99,,,-99.99,,2013-01-05 11:00:00,
2013-01-05 03:08:00,19.0,0.0,30.29,NNE,22,0.0,0.0,36,-99.99,,,-99.99,,2013-01-05 11:08:00,
2013-01-05 03:16:00,19.0,0.0,30.29,NE,38,1.0,2.0,33,-99.99,,,-99.99,,2013-01-05 11:16:00,
2013-01-05 03:24:00,19.0,0.0,30.29,ESE,122,0.0,1.0,33,-99.99,,,-99.99,,2013-01-05 11:24:00,
2013-01-05 03:32:00,18.0,0.0,30.29,SSW,199,0.0,0.0,33,-99.99,,,-99.99,,2013-01-05 11:32:00,
2013-01-05 03:40:00,18.0,0.0,30.29,WSW,248,2.0,2.0,35,-99.99,,,-99.99,,2013-01-05 11:40:00,
2013-01-05 03:48:00,18.0,0.0,30.29,WSW,242,0.0,0.0,37,-99.99,,,-99.99,,2013-01-05 11:48:00,
2013-01-05 03:56:00,19.0,0.0,30.29,SW,229,0.0,2.0,35,-99.99,,,-99.99,,2013-01-05 11:56:00,
2013-01-05 04:04:00,18.0,0.0,30.29,WSW,254,0.0,1.0,35,-99.99,,,-99.99,,2013-01-05 12:04:00,
2013-01-05 04:12:00,19.0,0.0,30.29,WNW,287,0.0,1.0,34,-99.99,,,-99.99,,2013-01-05 12:12:00,
2013-01-05 04:20:00,17.0,0.0,30.29,WSW,254,0.0,0.0,31,-99.99,,,-99.99,,2013-01-05 12:20:00,
2013-01-05 04:28:00,17.0,0.0,30.29,SSW,206,2.0,3.0,34,-99.99,,,-99.99,,2013-01-05 12:28:00,
2013-01-05 04:36:00,19.0,0.0,30.29,SW,236,2.0,3.0,40,-99.99,,,-99.99,,2013-01-05 12:36:00,
2013-01-05 04:44:00,17.0,0.0,30.29,WSW,252,0.0,1.0,38,-99.99,,,-99.99,,2013-01-05 12:44:00,
2013-01-05 04:52:00,15.0,0.0,30.30,NW,305,1.0,2.0,36,-99.99,,,-99.99,,2013-01-05 12:52:00,
2013-01-05 05:00:00,14.0,0.0,30.30,NNW,339,2.0,2.0,31,-99.99,,,-99.99,,2013-01-05 13:00:00,
2013-01-05 05:08:00,13.0,0.0,30.30,NNE,14,3.0,3.0,33,-99.99,,,-99.99,,2013-01-05 13:08:00,
2013-01-05 05:16:00,14.0,0.0,30.30,NNE,28,2.0,3.0,35,-99.99,,,-99.99,,2013-01-05 13:16:00,
2013-01-05 05:24:00,15.0,0.0,30.30,NNE,14,2.0,2.0,32,-99.99,,,-99.99,,2013-01-05 13:24:00,
2013-01-05 05:32:00,14.0,0.0,30.30,NW,326,2.0,2.0,33,-99.99,,,-99.99,,2013-01-05 13:32:00,
2013-01-05 05:40:00,14.0,0.0,30.31,NNW,331,2.0,3.0,36,-99.99,,,-99.99,,2013-01-05 13:40:00,
2013-01-05 05:48:00,15.0,0.0,30.31,NW,311,3.0,3.0,35,-99.99,,,-99.99,,2013-01-05 13:48:00,
2013-01-05 05:56:00,16.0,0.0,30.31,NW,306,3.0,3.0,38,-99.99,,,-99.99,,2013-01-05 13:56:00,
2013-01-05 06:04:00,16.0,0.0,30.31,NW,304,2.0,2.0,39,-99.99,,,-99.99,,2013-01-05 14:04:00,
2013-01-05 06:12:00,17.0,0.0,30.31,WNW,295,2.0,2.0,36,-99.99,,,-99.99,,2013-01-05 14:12:00,
2013-01-05 06:20:00,16.0,0.0,30.32,WSW,244,6.0,6.0,36,-99.99,,,-99.99,,2013-01-05 14:20:00,
2013-01-05 06:28:00,15.0,0.0,30.32,SW,231,6.0,6.0,36,-99.99,,,-99.99,,2013-01-05 14:28:00,
2013-01-05 06:36:00,15.0,0.0,30.32,SW,235,6.0,6.0,39,-99.99,,,-99.99,,2013-01-05 14:36:00,
2013-01-05 06:44:00,16.0,0.0,30.32,SW,220,2.0,2.0,38,-99.99,,,-99.99,,2013-01-05 14:44:00,
2013-01-05 06:52:00,14.0,0.0,30.32,SE,133,0.0,0.0,35,-99.99,,,-99.99,,2013-01-05 14:52:00,
2013-01-05 07:00:00,13.0,0.0,30.32,East,100,2.0,2.0,35,-99.99,,,-99.99,,2013-01-05 15:00:00,
2013-01-05 07:08:00,13.0,0.0,30.33,East,100,0.0,0.0,37,-99.99,,,-99.99,,2013-01-05 15:08:00,
2013-01-05 07:16:00,14.0,0.0,30.33,SW,219,0.0,0.0,38,-99.99,,,-99.99,,2013-01-05 15:16:00,
2013-01-05 07:24:00,16.0,0.0,30.33,SW,217,0.0,0.0,34,-99.99,,,-99.99,,2013-01-05 15:24:00,
2013-01-05 07:32:00,17.0,0.0,30.33,SW,218,0.0,0.0,37,-99.99,,,-99.99,,2013-01-05 15:32:00,
2013-01-05 07:40:00,18.0,0.0,30.34,WNW,291,2.0,2.0,32,-99.99,,,-99.99,,2013-01-05 15:40:00,
2013-01-05 07:48:00,18.0,0.0,30.34,WNW,284,1.0,2.0,33,-99.99,,,-99.99,,2013-01-05 15:48:00,
2013-01-05 07:56:00,22.0,0.0,30.34,West,273,1.0,1.0,32,-99.99,,,-99.99,,2013-01-05 15:56:00,
2013-01-05 08:04:00,24.0,0.0,30.34,WSW,255,0.0,0.0,31,-99.99,,,-99.99,,2013-01-05 16:04:00,
2013-01-05 08:12:00,26.0,0.0,30.34,ESE,102,0.0,0.0,32,-99.99,,,-99.99,,2013-01-05 16:12:00,
2013-01-05 08:20:00,26.0,0.0,30.35,SSE,153,0.0,1.0,30,-99.99,,,-99.99,,2013-01-05 16:20:00,
2013-01-05 08:28:00,27.0,0.0,30.35,SE,143,1.0,1.0,32,-99.99,,,-99.99,,2013-01-05 16:28:00,
2013-01-05 08:36:00,26.0,0.0,30.35,ESE,107,1.0,2.0,30,-99.99,,,-99.99,,2013-01-05 16:36:00,
2013-01-05 08:44:00,28.0,0.0,30.35,ESE,109,1.0,1.0,31,-99.99,,,-99.99,,2013-01-05 16:44:00,
2013-01-05 08:52:00,30.0,0.0,30.35,South,170,0.0,0.0,30,-99.99,,,-99.99,,2013-01-05 16:52:00,
2013-01-05 09:00:00,30.0,0.0,30.35,WSW,256,1.0,2.0,28,-99.99,,,-99.99,,2013-01-05 17:00:00,
2013-01-05 09:08:00,30.0,0.0,30.35,SSW,210,2.0,3.0,30,-99.99,,,-99.99,,2013-01-05 17:08:00,
2013-01-05 09:16:00,32.0,0.0,30.35,West,264,1.0,3.0,30,-99.99,,,-99.99,,2013-01-05 17:16:00,
2013-01-05 09:24:00,35.0,0.0,30.35,WSW,243,1.0,2.0,27,-99.99,,,-99.99,,2013-01-05 17:24:00,
2013-01-05 09:32:00,37.0,0.0,30.35,SW,227,2.0,3.0,25,-99.99,,,-99.99,,2013-01-05 17:32:00,
2013-01-05 09:40:00,37.0,0.0,30.35,WSW,247,2.0,2.0,29,-99.99,,,-99.99,,2013-01-05 17:40:00,
2013-01-05 09:48:00,38.0,0.0,30.35,ESE,103,0.0,1.0,27,-99.99,,,-99.99,,2013-01-05 17:48:00,
2013-01-05 09:56:00,38.0,0.0,30.35,SE,139,2.0,2.0,25,-99.99,,,-99.99,,2013-01-05 17:56:00,
2013-01-05 10:04:00,38.0,0.0,30.35,SE,128,2.0,3.0,27,-99.99,,,-99.99,,2013-01-05 18:04:00,
2013-01-05 10:12:00,38.0,0.0,30.34,ESE,115,3.0,5.0,28,-99.99,,,-99.99,,2013-01-05 18:12:00,
2013-01-05 10:20:00,40.0,0.0,30.34,SE,131,3.0,3.0,27,-99.99,,,-99.99,,2013-01-05 18:20:00,
2013-01-05 10:28:00,42.0,0.0,30.34,SE,139,2.0,2.0,27,-99.99,,,-99.99,,2013-01-05 18:28:00,
2013-01-05 10:36:00,42.0,0.0,30.34,SE,140,3.0,5.0,23,-99.99,,,-99.99,,2013-01-05 18:36:00,
2013-01-05 10:44:00,43.0,0.0,30.33,SE,132,2.0,2.0,23,-99.99,,,-99.99,,2013-01-05 18:44:00,
2013-01-05 10:52:00,44.0,0.0,30.33,South,173,3.0,3.0,26,-99.99,,,-99.99,,2013-01-05 18:52:00,
2013-01-05 11:00:00,44.0,0.0,30.33,ESE,111,1.0,2.0,24,-99.99,,,-99.99,,2013-01-05 19:00:00,
2013-01-05 11:08:00,45.0,0.0,30.32,SW,222,0.0,2.0,23,-99.99,,,-99.99,,2013-01-05 19:08:00,
2013-01-05 11:16:00,46.0,0.0,30.31,ESE,112,1.0,2.0,21,-99.99,,,-99.99,,2013-01-05 19:16:00,
2013-01-05 11:24:00,47.0,0.0,30.30,SSE,151,3.0,5.0,24,-99.99,,,-99.99,,2013-01-05 19:24:00,
2013-01-05 11:32:00,47.0,0.0,30.30,NNE,19,0.0,2.0,20,-99.99,,,-99.99,,2013-01-05 19:32:00,
2013-01-05 11:40:00,47.0,0.0,30.29,SE,139,2.0,3.0,22,-99.99,,,-99.99,,2013-01-05 19:40:00,
2013-01-05 11:48:00,48.0,0.0,30.29,SE,135,1.0,3.0,20,-99.99,,,-99.99,,2013-01-05 19:48:00,
2013-01-05 11:56:00,49.0,0.0,30.28,NE,38,2.0,5.0,19,-99.99,,,-99.99,,2013-01-05 19:56:00,
2013-01-05 12:04:00,49.0,0.0,30.28,ESE,102,3.0,3.0,19,-99.99,,,-99.99,,2013-01-05 20:04:00,
2013-01-05 12:12:00,50.0,0.0,30.27,NE,51,2.0,3.0,18,-99.99,,,-99.99,,2013-01-05 20:12:00,
2013-01-05 12:20:00,52.0,0.0,30.26,SSE,162,0.0,2.0,21,-99.99,,,-99.99,,2013-01-05 20:20:00,
2013-01-05 12:28:00,51.0,0.0,30.26,SE,145,1.0,5.0,17,-99.99,,,-99.99,,2013-01-05 20:28:00,
2013-01-05 12:36:00,53.0,0.0,30.25,SSE,161,3.0,5.0,20,-99.99,,,-99.99,,2013-01-05 20:36:00,
2013-01-05 12:44:00,54.0,0.0,30.25,SSW,211,2.0,3.0,15,-99.99,,,-99.99,,2013-01-05 20:44:00,
2013-01-05 12:52:00,54.0,0.0,30.24,SSW,211,0.0,3.0,15,-99.99,,,-99.99,,2013-01-05 20:52:00,
2013-01-05 13:00:00,55.0,0.0,30.24,SSE,165,3.0,3.0,15,-99.99,,,-99.99,,2013-01-05 21:00:00,
2013-01-05 13:08:00,54.0,0.0,30.23,SSE,153,2.0,5.0,17,-99.99,,,-99.99,,2013-01-05 21:08:00,
2013-01-05 13:16:00,53.0,0.0,30.23,South,174,3.0,7.0,18,-99.99,,,-99.99,,2013-01-05 21:16:00,
2013-01-05 13:24:00,53.0,0.0,30.23,SSW,203,3.0,5.0,18,-99.99,,,-99.99,,2013-01-05 21:24:00,
2013-01-05 13:32:00,53.0,0.0,30.23,SE,128,5.0,6.0,16,-99.99,,,-99.99,,2013-01-05 21:32:00,
2013-01-05 13:40:00,53.0,0.0,30.22,East,101,2.0,5.0,16,-99.99,,,-99.99,,2013-01-05 21:40:00,
2013-01-05 13:48:00,53.0,0.0,30.22,ENE,78,3.0,6.0,15,-99.99,,,-99.99,,2013-01-05 21:48:00,
2013-01-05 13:56:00,53.0,0.0,30.21,NE,45,2.0,5.0,19,-99.99,,,-99.99,,2013-01-05 21:56:00,
2013-01-05 14:04:00,54.0,0.0,30.21,ESE,113,3.0,5.0,15,-99.99,,,-99.99,,2013-01-05 22:04:00,
2013-01-05 14:12:00,54.0,0.0,30.21,ENE,63,3.0,5.0,15,-99.99,,,-99.99,,2013-01-05 22:12:00,
2013-01-05 14:20:00,54.0,0.0,30.21,NE,40,3.0,5.0,16,-99.99,,,-99.99,,2013-01-05 22:20:00,
2013-01-05 14:28:00,54.0,0.0,30.20,ENE,75,5.0,5.0,15,-99.99,,,-99.99,,2013-01-05 22:28:00,
2013-01-05 14:36:00,55.0,0.0,30.20,East,93,1.0,2.0,14,-99.99,,,-99.99,,2013-01-05 22:36:00,
2013-01-05 14:44:00,54.0,0.0,30.20,East,86,2.0,5.0,14,-99.99,,,-99.99,,2013-01-05 22:44:00,
2013-01-05 14:52:00,54.0,0.0,30.20,SSE,148,3.0,5.0,14,-99.99,,,-99.99,,2013-01-05 22:52:00,
2013-01-05 15:00:00,54.0,0.0,30.20,ESE,107,1.0,3.0,15,-99.99,,,-99.99,,2013-01-05 23:00:00,
2013-01-05 15:08:00,54.0,0.0,30.20,East,101,3.0,6.0,14,-99.99,,,-99.99,,2013-01-05 23:08:00,
2013-01-05 15:16:00,54.0,0.0,30.20,South,171,1.0,3.0,14,-99.99,,,-99.99,,2013-01-05 23:16:00,
2013-01-05 15:24:00,55.0,0.0,30.20,SSE,153,1.0,6.0,17,-99.99,,,-99.99,,2013-01-05 23:24:00,
2013-01-05 15:32:00,54.0,0.0,30.20,SE,145,5.0,5.0,13,-99.99,,,-99.99,,2013-01-05 23:32:00,
2013-01-05 15:40:00,54.0,0.0,30.20,SSE,165,6.0,6.0,17,-99.99,,,-99.99,,2013-01-05 23:40:00,
2013-01-05 15:48:00,54.0,0.0,30.19,SSE,157,3.0,5.0,13,-99.99,,,-99.99,,2013-01-05 23:48:00,
2013-01-05 15:56:00,54.0,0.0,30.19,SSE,152,5.0,5.0,15,-99.99,,,-99.99,,2013-01-05 23:56:00,
2013-01-05 16:04:00,53.0,0.0,30.19,SE,134,3.0,5.0,15,-99.99,,,-99.99,,2013-01-06 00:04:00,
2013-01-05 16:12:00,53.0,0.0,30.19,SE,135,3.0,3.0,13,-99.99,,,-99.99,,2013-01-06 00:12:00,
2013-01-05 16:20:00,52.0,0.0,30.19,SSE,157,3.0,5.0,14,-99.99,,,-99.99,,2013-01-06 00:20:00,
2013-01-05 16:28:00,51.0,0.0,30.19,SSE,152,5.0,5.0,16,-99.99,,,-99.99,,2013-01-06 00:28:00,
2013-01-05 16:36:00,51.0,0.0,30.19,SSE,157,3.0,5.0,18,-99.99,,,-99.99,,2013-01-06 00:36:00,
2013-01-05 16:44:00,51.0,0.0,30.18,SSE,158,5.0,5.0,15,-99.99,,,-99.99,,2013-01-06 00:44:00,
2013-01-05 16:52:00,50.0,0.0,30.18,SSE,152,5.0,5.0,17,-99.99,,,-99.99,,2013-01-06 00:52:00,
2013-01-05 17:00:00,50.0,0.0,30.18,SSE,148,5.0,6.0,15,-99.99,,,-99.99,,2013-01-06 01:00:00,
2013-01-05 17:08:00,48.0,0.0,30.18,SE,126,3.0,3.0,16,-99.99,,,-99.99,,2013-01-06 01:08:00,
2013-01-05 17:16:00,49.0,0.0,30.18,SSE,148,2.0,3.0,18,-99.99,,,-99.99,,2013-01-06 01:16:00,
2013-01-05 17:24:00,48.0,0.0,30.18,SSE,152,3.0,3.0,18,-99.99,,,-99.99,,2013-01-06 01:24:00,
2013-01-05 17:32:00,46.0,0.0,30.18,SE,144,2.0,2.0,17,-99.99,,,-99.99,,2013-01-06 01:32:00,
2013-01-05 17:40:00,46.0,0.0,30.18,SE,142,1.0,2.0,17,-99.99,,,-99.99,,2013-01-06 01:40:00,
2013-01-05 17:48:00,46.0,0.0,30.18,East,89,2.0,2.0,19,-99.99,,,-99.99,,2013-01-06 01:48:00,
2013-01-05 17:56:00,46.0,0.0,30.18,East,98,3.0,3.0,19,-99.99,,,-99.99,,2013-01-06 01:56:00,
2013-01-05 18:04:00,44.0,0.0,30.18,ENE,70,2.0,3.0,18,-99.99,,,-99.99,,2013-01-06 02:04:00,
2013-01-05 18:12:00,44.0,0.0,30.18,NE,44,1.0,1.0,17,-99.99,,,-99.99,,2013-01-06 02:12:00,
2013-01-05 18:24:00,43.0,0.0,30.17,North,360,0.0,2.0,19,-99.99,,,-99.99,,2013-01-06 02:24:00,
2013-01-05 18:32:00,44.0,0.0,30.17,SW,232,1.0,2.0,21,-99.99,,,-99.99,,2013-01-06 02:32:00,
2013-01-05 18:40:00,44.0,0.0,30.17,ESE,122,1.0,2.0,18,-99.99,,,-99.99,,2013-01-06 02:40:00,
2013-01-05 18:48:00,44.0,0.0,30.17,ESE,104,1.0,2.0,22,-99.99,,,-99.99,,2013-01-06 02:48:00,
2013-01-05 18:56:00,42.0,0.0,30.17,SW,219,2.0,2.0,19,-99.99,,,-99.99,,2013-01-06 02:56:00,
2013-01-05 19:04:00,40.0,0.0,30.17,WSW,240,1.0,5.0,19,-99.99,,,-99.99,,2013-01-06 03:04:00,
2013-01-05 19:12:00,39.0,0.0,30.17,WSW,256,3.0,3.0,23,-99.99,,,-99.99,,2013-01-06 03:12:00,
2013-01-05 19:20:00,39.0,0.0,30.17,West,272,2.0,5.0,22,-99.99,,,-99.99,,2013-01-06 03:20:00,
2013-01-05 19:28:00,38.0,0.0,30.17,WSW,252,2.0,2.0,24,-99.99,,,-99.99,,2013-01-06 03:28:00,
2013-01-05 19:36:00,38.0,0.0,30.17,WSW,245,2.0,2.0,24,-99.99,,,-99.99,,2013-01-06 03:36:00,
2013-01-05 19:44:00,37.0,0.0,30.17,West,269,0.0,0.0,21,-99.99,,,-99.99,,2013-01-06 03:44:00,
2013-01-05 19:52:00,36.0,0.0,30.16,NE,56,1.0,1.0,26,-99.99,,,-99.99,,2013-01-06 03:52:00,
2013-01-05 20:00:00,36.0,0.0,30.16,SSE,155,1.0,1.0,24,-99.99,,,-99.99,,2013-01-06 04:00:00,
2013-01-05 20:08:00,37.0,0.0,30.17,South,172,2.0,3.0,25,-99.99,,,-99.99,,2013-01-06 04:08:00,
2013-01-05 20:16:00,36.0,0.0,30.17,SE,129,1.0,1.0,26,-99.99,,,-99.99,,2013-01-06 04:16:00,
2013-01-05 20:24:00,35.0,0.0,30.16,East,93,3.0,3.0,21,-99.99,,,-99.99,,2013-01-06 04:24:00,
2013-01-05 20:32:00,35.0,0.0,30.16,ESE,104,3.0,5.0,23,-99.99,,,-99.99,,2013-01-06 04:32:00,
2013-01-05 20:40:00,36.0,0.0,30.16,SE,130,2.0,2.0,24,-99.99,,,-99.99,,2013-01-06 04:40:00,
2013-01-05 20:48:00,37.0,0.0,30.16,SSE,150,2.0,2.0,23,-99.99,,,-99.99,,2013-01-06 04:48:00,
2013-01-05 20:56:00,35.0,0.0,30.16,ENE,59,1.0,2.0,21,-99.99,,,-99.99,,2013-01-06 04:56:00,
2013-01-05 21:00:00,35.0,0.0,30.17,NNW,334,1.0,1.0,21,-99.99,,,-99.99,,2013-01-06 05:00:00,
2013-01-05 21:04:00,35.0,0.0,30.17,West,278,3.0,5.0,22,-99.99,,,-99.99,,2013-01-06 05:04:00,
2013-01-05 21:08:00,35.0,0.0,30.17,WSW,250,1.0,2.0,22,-99.99,,,-99.99,,2013-01-06 05:08:00,
2013-01-05 21:16:00,35.0,0.0,30.17,WNW,291,2.0,3.0,22,-99.99,,,-99.99,,2013-01-06 05:16:00,
2013-01-05 21:20:00,34.0,0.0,30.17,NW,318,2.0,2.0,22,-99.99,,,-99.99,,2013-01-06 05:20:00,
2013-01-05 21:28:00,34.0,0.0,30.17,NW,307,2.0,2.0,23,-99.99,,,-99.99,,2013-01-06 05:28:00,
2013-01-05 21:36:00,34.0,0.0,30.17,NNW,329,3.0,5.0,23,-99.99,,,-99.99,,2013-01-06 05:36:00,
2013-01-05 21:44:00,33.0,0.0,30.16,North,356,5.0,5.0,21,-99.99,,,-99.99,,2013-01-06 05:44:00,
2013-01-05 21:52:00,32.0,0.0,30.16,NNE,15,3.0,5.0,24,-99.99,,,-99.99,,2013-01-06 05:52:00,
2013-01-05 22:00:00,32.0,0.0,30.16,NNE,16,2.0,2.0,24,-99.99,,,-99.99,,2013-01-06 06:00:00,
2013-01-05 22:08:00,35.0,0.0,30.16,NNW,348,2.0,2.0,26,-99.99,,,-99.99,,2013-01-06 06:08:00,
2013-01-05 22:16:00,34.0,0.0,30.16,NW,326,5.0,5.0,22,-99.99,,,-99.99,,2013-01-06 06:16:00,
2013-01-05 22:24:00,33.0,0.0,30.16,NW,311,3.0,5.0,22,-99.99,,,-99.99,,2013-01-06 06:24:00,
2013-01-05 22:32:00,33.0,0.0,30.16,WNW,301,3.0,3.0,25,-99.99,,,-99.99,,2013-01-06 06:32:00,
2013-01-05 22:40:00,32.0,0.0,30.16,NW,307,2.0,2.0,22,-99.99,,,-99.99,,2013-01-06 06:40:00,
2013-01-05 22:48:00,34.0,0.0,30.15,NNW,333,0.0,1.0,24,-99.99,,,-99.99,,2013-01-06 06:48:00,
2013-01-05 22:56:00,36.0,0.0,30.15,WSW,250,0.0,1.0,24,-99.99,,,-99.99,,2013-01-06 06:56:00,
2013-01-05 23:04:00,37.0,0.0,30.15,West,270,1.0,1.0,22,-99.99,,,-99.99,,2013-01-06 07:04:00,
2013-01-05 23:12:00,34.0,0.0,30.15,West,267,3.0,3.0,23,-99.99,,,-99.99,,2013-01-06 07:12:00,
2013-01-05 23:20:00,33.0,0.0,30.14,SW,226,0.0,0.0,24,-99.99,,,-99.99,,2013-01-06 07:20:00,
2013-01-05 23:28:00,34.0,0.0,30.14,SW,214,2.0,2.0,24,-99.99,,,-99.99,,2013-01-06 07:28:00,
2013-01-05 23:36:00,32.0,0.0,30.13,SSE,147,0.0,1.0,22,-99.99,,,-99.99,,2013-01-06 07:36:00,
2013-01-05 23:44:00,32.0,0.0,30.13,WNW,287,1.0,1.0,22,-99.99,,,-99.99,,2013-01-06 07:44:00,
2013-01-05 23:52:00,31.0,0.0,30.13,ESE,102,2.0,2.0,25,-99.99,,,-99.99,,2013-01-06 07:52:00,